[[{"header":{"parameterUnit":"m.s-1","parameterCategory":1,"la1":30.2991,"la2":30.254,"lo1":-89.0895,"lo2":-89.0444,"dy":0.0017,"dx":0.0017,"nx":28,"ny":28,"refTime":"2024-09-28T09:00:00:Z","depth":0,"parameterNumber":2,"parameterNumberName":"U-component_of_WINDS"},"data":[0,0,0,0,0,0,0,0,0,0,0,0,0,0,0,0,0,0,0,0,0,0,0,0,0,0,0,0,0,0,0,0,0,0,0,0,0,0,0,0,0,0,0,0,0,0,0,0,0,0,0,0,0,0,0,0,0,0,1.8194,1.8196,0,1.8389,1.8391,1.8393,1.8406,1.8404,1.8402,1.84,1.8605,1.8612,1.862,0,0,0,0,0,0,0,0,0,0,0,0,0,1.7841,1.7847,1.8194,1.8196,1.8199,1.8388,1.8391,1.8394,1.8407,1.8404,1.8401,1.8399,1.8602,1.8611,1.862,0,0,0,0,0,0,0,0,0,0,0,0,0,1.8011,1.7849,1.8193,1.8228,1.8233,1.8388,1.8391,1.8394,1.8407,1.8404,1.84,1.8397,1.8599,1.861,1.8622,1.8757,0,0,1.8656,1.8661,0,0,0,0,0,0,0,0,1.8001,1.8024,1.822,1.8226,1.8232,1.837,1.8342,1.8516,1.8408,1.8341,1.84,1.8396,1.853,1.8546,1.859,1.8767,1.8776,1.8657,1.8664,1.8669,1.8672,0,0,0,0,0,0,0,1.7989,1.8015,1.8271,1.8223,1.823,1.8236,1.8257,1.8375,1.8452,1.8347,1.8348,1.8371,1.8532,1.858,1.8595,1.8779,1.8657,1.8667,1.8674,1.8678,1.908,1.9084,0,0,0,0,0,0,1.797,1.8005,1.8265,1.8277,1.8106,1.8245,1.8268,1.8329,1.845,1.8466,1.8373,1.8371,1.8562,1.8582,1.8603,1.8772,1.8669,1.8679,1.8686,1.9076,1.9081,1.9085,0,0,0,0,0,0,1.7962,1.7993,1.8257,1.8142,1.8176,1.8255,1.8323,1.8334,1.8382,1.847,1.8485,1.8407,1.856,1.8587,1.8719,1.8779,1.8684,1.8694,1.9071,1.9077,1.9083,1.9109,0,0,0,0,0,0,1.7952,1.799,1.804,1.8143,1.8182,1.8368,1.8326,1.8341,1.84,1.8399,1.8506,1.8521,1.856,1.8702,1.873,1.8793,1.8703,1.9066,1.9074,1.9081,1.9103,1.9115,1.9125,0,0,0,0,0,1.7939,1.8041,1.8043,1.8074,1.8246,1.8371,1.8394,1.8435,1.8405,1.8458,1.8515,1.8517,1.8767,1.8716,1.8747,1.8814,1.9063,1.9072,1.908,1.9098,1.9113,1.9125,0,0,0,0,0,0,1.7945,1.8054,1.8058,1.8195,1.8274,1.8373,1.8441,1.8449,1.8539,1.8533,1.8582,1.8607,1.8738,1.8789,1.8729,1.8954,1.8912,1.8928,1.8915,1.893,1.894,1.8926,1.8713,0,0,0,0,0,1.7961,1.8052,1.8144,1.8256,1.8295,1.8361,1.8417,1.8442,1.8526,1.856,1.8627,1.871,1.8808,1.8872,1.8966,1.9111,1.9136,1.9173,1.9184,1.9192,1.9205,1.9289,1.9307,1.9114,1.9114,1.9114,0,0,1.7998,1.8069,1.8123,1.8259,1.8322,1.8418,1.8389,1.849,1.8562,1.8576,1.8705,1.8757,1.8854,1.8994,1.9058,1.904,1.9264,1.9203,1.921,1.9218,1.93,1.9318,1.9334,1.912,1.9119,1.9118,0,0,1.8112,1.8174,1.8275,1.834,1.8436,1.848,1.8505,1.8604,1.8639,1.8769,1.8782,1.887,1.9036,1.9105,1.9162,1.9306,1.9312,1.9336,1.9393,1.9474,1.9489,1.9503,1.9557,1.9575,1.9348,1.9348,1.9349,0,1.8145,1.8287,1.8327,1.8428,1.8489,1.8505,1.861,1.8671,1.8794,1.8837,1.8815,1.9026,1.9092,1.9249,1.9285,1.9329,1.9361,1.9324,1.9483,1.9498,1.9511,1.9563,1.9583,1.9351,1.9351,1.935,1.935,0,1.8324,1.8422,1.8493,1.861,1.8679,1.8782,1.884,1.8905,1.8925,1.8972,1.9106,1.9186,1.9299,1.9338,1.9358,1.95,1.9486,1.9473,1.9433,1.9531,1.9581,1.9601,1.9354,1.9353,1.9353,1.9352,0,0,1.8446,1.8586,1.8611,1.8666,1.8775,1.8853,1.8958,1.9066,1.9123,1.9208,1.9299,1.9441,1.9431,1.9495,1.9524,1.9595,1.9707,1.9574,1.9577,1.9598,1.9871,1.9881,1.9903,1.9711,1.9715,1.9718,1.9863,0,1.8574,1.8759,1.8799,1.8959,1.9052,1.907,1.9162,1.9241,1.9288,1.9376,1.943,1.953,1.9508,1.9547,1.9618,1.9678,1.9763,1.9668,1.98,1.9804,1.9776,1.9928,1.9939,2.0071,1.9883,1.9886,1.9889,0,1.8747,1.8836,1.9005,1.9104,1.9145,1.9226,1.9331,1.9414,1.9505,1.9534,1.9608,1.963,1.9743,1.9697,1.9855,1.979,1.9847,1.9885,1.9891,1.9906,1.9853,1.9949,2.0114,2.0135,1.9919,1.9917,1.9914,0,1.8822,1.8984,1.9106,1.9153,1.9271,1.9328,1.938,1.9468,1.9531,1.9624,1.9666,1.9771,1.9828,1.991,1.9962,1.9923,2.0117,2.0074,2.0148,2.0147,2.0189,2.0185,2.0367,2.0222,2.0222,2.0222,2.0221,0,1.8961,1.9065,1.9142,1.9217,1.9335,1.9382,1.9498,1.9551,1.9629,1.9717,1.974,1.9823,1.9885,1.9978,2.0019,2.0145,2.0171,2.0201,2.0211,2.0199,2.0196,2.0238,2.0231,2.0227,2.0226,2.0225,2.0224,0,1.9064,1.912,1.9255,1.9356,1.9384,1.9467,1.9555,1.9631,1.9679,1.9791,1.982,1.9897,2.0008,2.0067,2.0206,2.0233,2.0376,2.038,2.0345,2.035,2.042,2.0414,2.0637,2.0669,2.0501,2.0503,2.0504,0,1.915,1.923,1.934,1.94,1.9453,1.9549,1.9614,1.9665,1.9732,1.9843,1.9907,2.0018,2.011,2.0287,2.0357,2.0464,2.0472,2.0543,2.0489,2.0476,2.0476,2.0471,2.0481,2.0553,2.0555,2.0556,2.0557,0,1.9297,1.9321,1.9412,1.9515,1.9592,1.9676,1.9758,1.9807,1.9872,1.9947,2.006,2.0131,2.0273,2.0385,2.0498,2.0555,2.0569,2.0573,2.0597,2.0587,2.0564,2.058,2.0373,2.0568,2.0567,2.0566,2.0566,2.0565,1.9396,1.9468,1.9557,1.966,1.9728,1.9805,1.9882,1.994,2.0034,2.0152,2.0177,2.0297,2.039,2.0543,2.0603,2.07,2.0686,2.0719,2.0728,2.0736,2.074,2.0547,2.0721,2.0721,2.072,2.072,2.072,0,1.9546,1.9604,1.9698,1.9813,1.9894,1.9897,1.999,2.0059,2.0164,2.0248,2.0338,2.0469,2.0579,2.0658,2.077,2.0833,2.0842,2.0861,2.0857,2.0871,2.0744,2.0714,2.0851,2.0851,2.0851,2.0851,2.0851,2.0851,1.9633,1.9757,1.9792,1.9952,2.0011,2.0127,2.018,2.0253,2.032,2.0465,2.0556,2.0606,2.069,2.0808,2.091,2.0931,2.0972,2.0991,2.1013,2.0893,2.0879,2.0866,2.0838,2.0999,2.0999,2.1132,2.1133,2.1134]},{"header":{"parameterUnit":"m.s-1","parameterCategory":1,"la1":30.2991,"la2":30.254,"lo1":-89.0895,"lo2":-89.0444,"dy":0.0017,"dx":0.0017,"nx":28,"ny":28,"refTime":"2024-09-28T09:00:00:Z","depth":0,"parameterNumber":3,"parameterNumberName":"V-component_of_WINDS"},"data":[0,0,0,0,0,0,0,0,0,0,0,0,0,0,0,0,0,0,0,0,0,0,0,0,0,0,0,0,0,0,0,0,0,0,0,0,0,0,0,0,0,0,0,0,0,0,0,0,0,0,0,0,0,0,0,0,0,0,2.6023,2.6026,0,2.628,2.6283,2.6286,2.6336,2.6334,2.6332,2.633,2.6595,2.6604,2.6613,0,0,0,0,0,0,0,0,0,0,0,0,0,2.558,2.5588,2.6023,2.6026,2.6029,2.6279,2.6283,2.6287,2.6336,2.6334,2.6331,2.6329,2.6592,2.6603,2.6613,0,0,0,0,0,0,0,0,0,0,0,0,0,2.5798,2.5591,2.6022,2.6084,2.6092,2.6279,2.6283,2.6287,2.6337,2.6334,2.6331,2.6328,2.6589,2.6602,2.6615,2.6758,0,0,2.6656,2.6662,0,0,0,0,0,0,0,0,2.5786,2.5814,2.6072,2.608,2.609,2.6273,2.6224,2.6445,2.6338,2.6244,2.633,2.6326,2.649,2.6512,2.6567,2.6771,2.6782,2.6657,2.6665,2.6671,2.6675,0,0,0,0,0,0,0,2.5771,2.5804,2.6125,2.6076,2.6087,2.6101,2.6128,2.6266,2.6381,2.6252,2.6256,2.6286,2.6495,2.6554,2.6573,2.6786,2.6657,2.6669,2.6677,2.6682,2.7125,2.7128,0,0,0,0,0,0,2.5744,2.5791,2.6117,2.6132,2.5927,2.6111,2.6142,2.6217,2.638,2.6402,2.6288,2.6287,2.6532,2.6558,2.6583,2.6764,2.6671,2.6684,2.6691,2.7121,2.7126,2.713,0,0,0,0,0,0,2.5734,2.5773,2.6106,2.5963,2.6007,2.6122,2.6206,2.6224,2.6283,2.6407,2.6428,2.6327,2.6531,2.6564,2.6715,2.6774,2.669,2.6702,2.7117,2.7123,2.7128,2.7127,0,0,0,0,0,0,2.5721,2.5769,2.5823,2.5964,2.6014,2.6233,2.6209,2.6231,2.6305,2.6307,2.6449,2.647,2.6531,2.6695,2.6728,2.6791,2.6712,2.7112,2.7119,2.7126,2.7122,2.7131,2.7139,0,0,0,0,0,2.5705,2.5812,2.5826,2.5865,2.6084,2.6236,2.6265,2.6333,2.631,2.6367,2.6447,2.6465,2.6762,2.671,2.6748,2.6816,2.7109,2.7117,2.7125,2.7118,2.7129,2.7139,0,0,0,0,0,0,2.5676,2.5832,2.5848,2.6004,2.6106,2.6244,2.6318,2.6342,2.6454,2.645,2.653,2.6562,2.6709,2.6777,2.6717,2.6965,2.6934,2.695,2.6915,2.6927,2.6936,2.6917,2.6723,0,0,0,0,0,2.5688,2.5797,2.5927,2.6052,2.6103,2.6201,2.627,2.6313,2.6423,2.6467,2.6558,2.6665,2.6783,2.6858,2.6973,2.7131,2.7165,2.7197,2.7206,2.7212,2.7226,2.7319,2.7336,2.7157,2.7157,2.7157,0,0,2.5713,2.5811,2.5875,2.6049,2.6133,2.6247,2.6237,2.6357,2.6442,2.6485,2.6634,2.6705,2.683,2.6986,2.7059,2.7047,2.7283,2.7223,2.7227,2.7238,2.7329,2.7346,2.7361,2.7163,2.7162,2.7161,0,0,2.5817,2.5901,2.6016,2.6101,2.623,2.6295,2.6322,2.6458,2.6506,2.6657,2.6693,2.6796,2.6996,2.7084,2.7155,2.7296,2.7318,2.7331,2.7378,2.7467,2.7481,2.7494,2.7547,2.7565,2.7344,2.7344,2.7344,0,2.5832,2.6003,2.6072,2.6191,2.6267,2.6311,2.643,2.6509,2.6669,2.6721,2.6705,2.6959,2.7046,2.7225,2.726,2.7315,2.7351,2.7316,2.7473,2.7487,2.75,2.7551,2.7571,2.7345,2.7344,2.7344,2.7344,0,2.6017,2.6136,2.6213,2.6366,2.6451,2.6569,2.6658,2.6736,2.6772,2.6839,2.6994,2.71,2.7239,2.7284,2.732,2.747,2.7459,2.7456,2.7428,2.7516,2.7567,2.7587,2.7346,2.7346,2.7345,2.7345,0,0,2.611,2.6301,2.6329,2.64,2.6546,2.664,2.676,2.6896,2.6963,2.7072,2.7177,2.7346,2.7347,2.7427,2.7474,2.7552,2.766,2.7541,2.7545,2.7562,2.7835,2.7838,2.7859,2.7675,2.7679,2.7682,2.7826,0,2.6234,2.6451,2.6517,2.6699,2.6811,2.6856,2.6962,2.7063,2.713,2.7236,2.731,2.743,2.742,2.7469,2.7548,2.763,2.7717,2.762,2.7777,2.7781,2.7746,2.7885,2.7888,2.8018,2.7846,2.7849,2.7851,0,2.6407,2.652,2.6713,2.6848,2.6897,2.6991,2.7122,2.7222,2.734,2.7383,2.7474,2.7515,2.7646,2.7608,2.779,2.7723,2.7791,2.7841,2.7848,2.7867,2.7823,2.7911,2.8061,2.8082,2.7882,2.788,2.7878,0,2.6459,2.6659,2.6802,2.6861,2.702,2.7086,2.7156,2.727,2.7348,2.7463,2.7516,2.7644,2.7715,2.7814,2.789,2.7854,2.8067,2.8034,2.8109,2.8107,2.8153,2.815,2.8319,2.8192,2.8192,2.8191,2.8191,0,2.6592,2.6709,2.6828,2.6915,2.7049,2.7125,2.7256,2.7328,2.743,2.7535,2.758,2.7677,2.777,2.788,2.794,2.8084,2.8115,2.8155,2.817,2.8153,2.8148,2.82,2.8194,2.8197,2.8195,2.8194,2.8193,0,2.6673,2.6757,2.6916,2.7054,2.7092,2.7185,2.7304,2.7393,2.7461,2.7593,2.7628,2.7737,2.7869,2.7954,2.8122,2.8162,2.8321,2.8332,2.8282,2.8289,2.836,2.8354,2.8571,2.8605,2.8452,2.8453,2.8455,0,2.6754,2.6845,2.6994,2.7067,2.7138,2.7254,2.7335,2.7414,2.7496,2.7638,2.771,2.7845,2.7958,2.8167,2.8262,2.8392,2.8408,2.8476,2.8428,2.8409,2.8414,2.8408,2.842,2.8484,2.8485,2.8486,2.8487,0,2.6889,2.6926,2.704,2.7169,2.7264,2.737,2.7475,2.7533,2.763,2.7721,2.7857,2.7944,2.8117,2.8251,2.839,2.8464,2.8494,2.8501,2.8526,2.8511,2.8479,2.8501,2.8306,2.8496,2.8496,2.8495,2.8494,2.8494,2.6975,2.706,2.7178,2.7304,2.7392,2.7491,2.7581,2.7662,2.7776,2.7923,2.7963,2.8106,2.8224,2.8414,2.849,2.8604,2.8596,2.8631,2.8641,2.8649,2.8652,2.8458,2.863,2.8629,2.8629,2.8629,2.8629,0,2.7115,2.7194,2.7309,2.7456,2.7556,2.7574,2.7692,2.7776,2.79,2.8008,2.8118,2.8276,2.8408,2.8513,2.865,2.8721,2.8738,2.8754,2.8751,2.8769,2.8649,2.8616,2.8739,2.8738,2.8738,2.8738,2.8738,2.8738,2.72,2.7345,2.7397,2.7588,2.7667,2.7807,2.7873,2.7966,2.8052,2.8226,2.8336,2.8404,2.8512,2.8657,2.8779,2.8807,2.8857,2.8871,2.8902,2.8789,2.8777,2.8765,2.8734,2.888,2.888,2.9012,2.9013,2.9014]}]]